Orbital Elements
Epoch 2024 Mar. 31.0 TT = JDT 2460400.5
T 2022 Mar. 19.53549 TT Rudenko
q 1.5693148 (2000.0) P Q
n 0.15353282 Peri. 313.52345 +0.46772701 -0.84625052
a 3.4541026 Node 106.94832 +0.86821527 +0.38579399
e 0.5456664 Incl. 15.46884 +0.16563121 +0.36745482
P 6.42
>From 1531 observations 1997 Jan. 10-2024 May 7, mean residual 0".5.
|